165  
NZUS99 KDVN 150610  
HRRRRR  
HOURLY WEATHER ROUNDUP  
NATIONAL WEATHER SERVICE QUAD CITIES IA IL  
100 AM CDT SUN SEP 15 2019  
 
NOTE: "FAIR" INDICATES FEW OR NO CLOUDS BELOW 12,000 FEET WITH  
NO SIGNIFICANT WEATHER AND/OR OBSTRUCTIONS TO VISIBILITY.  
------------------------------------------------------------------  
 
CITY SKY/WX TMP DP RH WIND PRES REMARKS  
BURLINGTON CLEAR 72 60 66 S9 30.07F  
6HR MIN TEMP: 70; 6HR MAX TEMP: 77;  
 
CEDAR RAPIDS CLOUDY 66 65 96 S9 30.01F THUNDER  
6HR MIN TEMP: 65; 6HR MAX TEMP: 69; 6HR PCP: 0.39;  
 
DAVENPORT MOCLDY 71 61 70 S10G22 30.06F  
6HR MIN TEMP: 69; 6HR MAX TEMP: 76; 6HR PCP: 0.02;  
 
DUBUQUE HVY RAIN 65 64 97 VRB5 30.05F FOG  
6HR MIN TEMP: 65; 6HR MAX TEMP: 70; 6HR PCP: 0.17;  
 
IOWA CITY TSTM 71 63 75 VRB5G30 30.05S  
6HR MIN TEMP: 68; 6HR MAX TEMP: 76; 6HR PCP: 0.57;  
 
MOLINE FAIR 71 61 70 S10 30.03F  
6HR MIN TEMP: 69; 6HR MAX TEMP: 76; 6HR PCP: 0.27;  
 
------------------------------------------------------------------  
THE STATIONS BELOW ARE NOT NWS STATIONS AND ARE NOT SUBJECT TO NWS  
QUALITY CONTROL. SOME STATIONS DO NOT REPORT WEATHER SUCH AS FOG.  
* - STATIONS THAT REPORT TMP AND DP IN WHOLE DEGREES CELSIUS, WHICH  
ARE THEN CONVERTED TO FAHRENHEIT.  
------------------------------------------------------------------  
 
CITY SKY/WX TMP DP RH WIND PRES REMARKS  
CLINTON LGT RAIN 71 63 75 VRB6 30.06F  
6HR MIN TEMP: 66; 6HR MAX TEMP: 73; 6HR PCP: 0.33;  
 
FAIRFIELD * CLEAR 72 64 78 S10 30.02F  
FORT MADISON * CLEAR 72 63 73 S9 30.07F  
FREEPORT LGT RAIN 66 64 95 W10G16 30.10F  
6HR MIN TEMP: 65; 6HR MAX TEMP: 69;  
 
INDEPENDENCE MOCLDY 68 62 81 S12G20 30.00F  
KEOKUK * CLEAR 73 63 68 S9 30.07F  
MACOMB CLOUDY 67 62 81 S7 30.12F  
6HR MIN TEMP: 66; 6HR MAX TEMP: 76;  
 
MONTICELLO * RAIN 68 68 100 VRB3 30.03S  
MT PLEASANT * NOT AVBL  
MUSCATINE * FAIR 68 64 88 S3 30.03F  
SAVANNA * TSTM 70 63 78 SW12G17 30.07F  
STERLING/R.F. MOCLDY 68 64 87 VRB3 30.09S  
6HR MIN TEMP: 66; 6HR MAX TEMP: 73; 6HR PCP: 0.01;  
 
VINTON FAIR 71 66 85 S10G17 30.00S  
6HR MIN TEMP: 68; 6HR MAX TEMP: 73; 6HR PCP: 0.07;  
 
WASHINGTON * CLOUDY 70 64 83 S9 30.02S  
------------------------------------------------------------------  
 
 
CLICK HERE TO GO TO PREVIOUS BULLETINS.

The Nexlab IL Page
The Nexlab IA Page
The Nexlab MO Page Main Text Page